Regional Weather Roundup
Issued by NWS

Home | Current Version | Previous Version | Graphics & Text | Print | Product List | Glossary On
Versions: 1 2 3 4 5 6 7 8 9 10 11 12 13 14 15 16 17 18 19 20 21 22 23 24 25 26 27 28 29 30 31 32 33 34 35 36 37 38 39 40 41 42 43 44 45 46 47 48 49 50
000
ASUS45 KABQ 200701
RWRNM
WEATHER ROUNDUP FOR NEW MEXICO
NATIONAL WEATHER SERVICE ALBUQUERQUE NM
100 AM MDT MON OCT 20 2014

NOTE: "FAIR" MEANS FEW OR NO CLOUDS BELOW 12,000 FEET AGL WITH NO
       SIGNIFICANT WEATHER OR OBSTRUCTIONS TO VISION.

      THIS PRODUCT IS RELEASED AS TWO VERSIONS.  ONE VERSION NEAR
      THE TOP OF THE HOUR CONTAINING PRELIMINARY DATA FROM ALBUQUERQUE
      AND OTHER STATIONS.  A FINAL VERSION WITH ADDITIONAL DATA IS
      ISSUED ABOUT 10 MINUTES AFTER THE HOUR.

NMZ501-503-504-510>518-200800-
NORTHWEST PLATEAU/NORTHCENTRAL MOUNTAINS

CITY           SKY/WX    TMP DP  RH WIND       PRES   REMARKS
FARMINGTON     PTCLDY    50  44  80 NE5       30.16R
LOS ALAMOS     PTCLDY    50  38  62 NW3       30.25R
SANTA FE       PTCLDY    44  37  76 NE7       30.21R
TAOS           PTCLDY    43  36  75 NE5       30.26F
ANGEL FIRE     FOG       32  31  95 CALM      30.34F VSB 1/2

$$
NMZ402-403-502-505>509-200800-
WESTCENTRAL MOUNTAINS/SOUTHWEST MOUNTAINS

CITY           SKY/WX    TMP DP  RH WIND       PRES   REMARKS
GALLUP         PTCLDY    42  40  92 CALM      30.21R
SILVER CITY    LGT RAIN  52  50  93 NE6       30.20R

$$
NMZ407-409-411-412-200800-
SOUTHERN DESERTS

CITY           SKY/WX    TMP DP  RH WIND       PRES   REMARKS
LORDSBURG      FAIR      54  52  94 MISG      30.09S
DEMING         MOCLDY    56  52  86 NE9       30.11R
HOLLOMAN AFB   LGT RAIN  58  55  88 SE8       30.14R
T OR C         LGT RAIN  54  52  93 W3        30.16R

$$
NMZ519>523-200800-
CENTRAL VALLEYS/CENTRAL HIGHLANDS

CITY           SKY/WX    TMP DP  RH WIND       PRES   REMARKS
ALBUQUERQUE    PTCLDY    51  40  65 CALM      30.17R
DOUBLE EAGLE   PTCLDY    47  39  72 N7        30.19R
MORIARTY ARPT  CLOUDY    38  35  86 N3        30.23R
CLINES CORNERS CLEAR     45  36  70 W3        30.23R
BELEN          NOT AVBL
SOCORRO        MOCLDY    51  49  90 SE5       30.15R

$$
NMZ524>526-539-540-200800-
SOUTHCENTRAL MOUNTAINS

CITY           SKY/WX    TMP DP  RH WIND       PRES   REMARKS
RUIDOSO        NOT AVBL

$$
NMZ527>531-200800-
NORTHEAST HIGHLANDS/NORTHEAST PLAINS

CITY           SKY/WX    TMP DP  RH WIND       PRES   REMARKS
LAS VEGAS      CLOUDY    44  38  79 N6        30.23R
RATON          PTCLDY    45  38  76 NE6       30.19F
CLAYTON        CLEAR     52  44  74 N10       30.12S

$$
NMZ532>537-200800-
EASTCENTRAL PLAINS

CITY           SKY/WX    TMP DP  RH WIND       PRES   REMARKS
TUCUMCARI      PTCLDY    57  49  74 W6        30.10R
CANNON AFB     PTCLDY    54  52  94 CALM      30.13R
CLOVIS AIRPORT CLEAR     54  52  94 SW6       30.15R

$$
NMZ028-029-538-200800-
SOUTHEAST PLAINS

CITY           SKY/WX    TMP DP  RH WIND       PRES   REMARKS
ROSWELL        CLOUDY    57  51  80 N7        30.09S
CARLSBAD       MOCLDY    62  57  83 CALM      30.06S
HOBBS          FAIR      57  55  94 CALM      30.10S


$$


USA.gov is the U.S. government's official web portal to all federal, state and local government web resources and services.